Weather in Goritsy

Russia / Tver Oblast     57°09′15″N   36°44′00″E
temp.,
°C
wind,
m/s
gust,
m/s
humid.,
%
clouds,
%
prec.,
mm/h
press.,
hPa
HPBL,
m
22 january, sat
sat2200:00−8e3796100 1.1 999385
03:00−8e3795100 1.9 1000341
06:00−7e3796100 0.6 1002320
09:00−7e389696 0.8 1004343
12:00−6ene3795100 0.3 1007445
15:00−5e379595 0.6 1009525
18:00−7ene3896100 0.2 1012282
21:00−7ene379699 0.5 1014284
23 january, sun
sun2300:00−9ene269782 0.1 1017136
03:00−12ene259991 0.2 101976
06:00−15ne2210095 0.1 102337
09:00−18nne11100100 0.1 102611
12:00−11ene129597 0.0 1028104
15:00−9n119644 0.1 103022
18:00−16nnw1110073 0.0 10339
21:00−18nne0010075 0.0 10359
24 january, mon
mon2400:00−19wsw1110088 0.0 10379
03:00−20w1110099 0.0 10389
06:00−21sw11100100 0.0 103910
09:00−21sw11100100 0.0 104016
12:00−12ssw249462 0.0 1039120
15:00−9sw25955 0.0 1038173
18:00−14ssw259867 0.0 103769
21:00−16ssw279978 0.0 103691
25 january, tue
tue2500:00−16ssw289986 0.0 1034118
03:00−16ssw3109878 0.0 1032149
06:00−16ssw3119765 0.0 1029176
09:00−16ssw3119647 0.0 1027187
12:00−10ssw412915 0.0 1025308
15:00−8ssw41290100 0.0 1021405
18:00−9ssw41292100 0.0 1020362
21:00−10ssw31095100 0.1 1019316
26 january, wed
wed2600:00−10ssw2696100 0.5 1018225
03:00−10ssw1396100 1.1 1018125
06:00−9s1196100 0.8 101870
09:00−9ese1197100 1.4 101949
12:00−7ne1193100 0.1 1019195
15:00−6ene129399 0.4 1019243
18:00−9e119884 0.3 102012
21:00−12e119877 0.4 102010